Flag for Germany Weather past 2 weeks in Dietzenbach, Hesse, Germany

Now
79 °F

Partly sunny.


Feels Like: 79 °F
Forecast: 59 / 75 °F
Wind: 5 mph from Northeast

Location: Frankfurt / M-Flughafen

Current Time: Jul 24, 2014 at 3:27:02 PM

Latest Report: Jul 24, 2014 at 3:00 PM


Visibility: 25 mi

Pressure: 29.90 "Hg

Humidity: 39%

Dew point: 52 °F

Location of DietzenbachLocation

Historic Weather in Dietzenbach — Graph

°F

Dietzenbach temperature yesterday

Maximum temperature yesterday: 85 °F (at 5:00 PM)
Minimum temperature yesterday: 69 °F (at 6:00 AM)
Average temperature yesterday: 78 °F

Past Weeks' High & Low Weather Summary

 TemperatureHumidityPressure
High93 °F (Jul 19, 5:00 PM)96% (Jul 10, 7:00 AM)30.19 "Hg (Jul 10, 7:00 AM)
Low55 °F (Jul 10, 4:00 AM)22% (Jul 18, 6:00 PM)29.72 "Hg (Jul 9, 6:00 PM)
Average71 °F68%29.94 "Hg
* Reported Jul 9 3:00 PM — Jul 24 2:00 PM, Dietzenbach, Weather by CustomWeather, © 2014

Note: Actual official high and low records may vary slightly from our data, if they occured in-between our weather recording intervals... More about our weather records

Advertising

Dietzenbach weather history for previous 24 hours

 ConditionsComfort  
Time TempWeatherWind HumidityBarometerVisibility
2:00 PM
Jul 24
80 °FScattered clouds.5 mph36%29.91 "Hg25 mi
1:00 PM79 °FPassing clouds.5 mph39%29.92 "Hg28 mi
12:00 PM76 °FPassing clouds.6 mph45%29.93 "Hg25 mi
10:00 AM72 °FPassing clouds.6 mph56%29.94 "Hg25 mi
9:00 AM70 °FPassing clouds.5 mph59%29.94 "Hg25 mi
8:00 AM68 °FPassing clouds.5 mph62%29.94 "Hg25 mi
7:00 AM67 °FPassing clouds.6 mph64%29.93 "Hg25 mi
6:00 AM66 °FPassing clouds.3 mph65%29.93 "Hg25 mi
5:00 AM65 °FPassing clouds.2 mph70%29.92 "Hg25 mi
4:00 AM67 °FPassing clouds.3 mph68%29.94 "Hg25 mi
3:00 AM68 °FPassing clouds.3 mph70%29.95 "Hg25 mi
2:00 AM69 °FPassing clouds.2 mph67%29.95 "Hg25 mi
1:00 AM71 °FPassing clouds.2 mph65%29.96 "Hg25 mi
12:00 AM72 °FClear.2 mph61%29.96 "Hg25 mi
10:00 PM
Jul 23
77 °FPassing clouds.3 mph49%29.96 "Hg25 mi
9:00 PM80 °FScattered clouds.5 mph38%29.94 "Hg28 mi
8:00 PM83 °FPartly sunny.6 mph33%29.93 "Hg28 mi
7:00 PM84 °FPartly sunny.5 mph31%29.93 "Hg28 mi
6:00 PM84 °FPartly sunny.6 mph32%29.93 "Hg28 mi
5:00 PM85 °FOvercast.5 mph34%29.95 "Hg28 mi
4:00 PM83 °FPartly sunny.3 mph43%29.96 "Hg25 mi
3:00 PM80 °FSprinkles. Overcast.6 mph49%29.99 "Hg25 mi
Weather by CustomWeather, © 2014

See weather overviewHow to use our weather pages